Regional Weather Roundup
Issued by NWS

Home | Current Version | Previous Version | Graphics & Text | Print | Product List | Glossary On
Versions: 1 2 3 4 5 6 7 8 9 10 11 12 13 14 15 16 17 18 19 20 21 22 23 24 25 26 27 28 29 30 31 32 33 34 35 36 37 38 39 40 41 42 43 44 45 46 47 48 49 50
000
ASUS43 KDMX 311907
RWRIA

WEATHER ROUNDUP FOR IOWA
NATIONAL WEATHER SERVICE DES MOINES IA
200 PM CDT SUN AUG 31 2014

NOTE: "FAIR" INDICATES FEW OR NO CLOUDS BELOW 12,000 FEET WITH NO
SIGNIFICANT WEATHER AND/OR OBSTRUCTIONS TO VISIBILITY.

* - THESE STATIONS ARE NOT NWS STATIONS...THUS NOT UNDER NWS
QUALITY CONTROL.  THEY ALSO DO NOT REPORT WEATHER SUCH
AS PRECIPITATION OR FOG.

IAZ001>003-012>014-020>022-031>034-043>046-312000-
   NORTHWEST IOWA

CITY           SKY/WX    TMP DP  RH WIND       PRES   REMARKS
CARROLL *      SUNNY     79  70  73 S12G18    29.79R HX  81
CHEROKEE *     CLOUDY    77  70  78 SW10      29.75R
DENISON *      MOSUNNY   75  66  73 S16G25    29.76S
LE MARS *      SUNNY     81  68  65 S16       29.72S HX  83
ORANGE CITY *  SUNNY     79  66  65 SW14      29.72F HX  81
SHELDON *      SUNNY     77  68  73 SW9G16    29.72R
SIOUX CITY     MOSUNNY   80  67  64 S10       29.72F HX  82
SPENCER        CLOUDY    77  68  73 S9        29.73F
STORM LAKE *   SUNNY     77  72  83 S15G21    29.76R
$$

IAZ055>058-069>071-079>083-090>094-312000-
   SOUTHWEST IOWA

CITY           SKY/WX    TMP DP  RH WIND       PRES   REMARKS
ATLANTIC *     DRIZZLE   75  72  88 S6G13     29.79F
AUDUBON *      LGT RAIN  77  72  83 S6        29.83R
CLARINDA *     SUNNY     81  73  78 VRB3      29.81F HX  85
COUNCIL BLFS * SUNNY     77  73  88 SE9       29.77F
CRESTON *      SUNNY     81  73  78 S10       29.84R HX  85
HARLAN  *      MOSUNNY   73  72  94 CALM      29.82F
LAMONI         CLOUDY    85  73  67 S10       29.83F HX  91
RED OAK *      PTSUNNY   81  73  78 VRB3      29.79F HX  85
SHENANDOAH *   MOSUNNY   81  73  78 E6        29.79S HX  85
$$

IAZ047>049-059>061-072>074-084-312000-
   CENTRAL IOWA

CITY           SKY/WX    TMP DP  RH WIND       PRES   REMARKS
AMES           CLOUDY    84  70  62 S13       29.78F HX  88
ANKENY *       SUNNY     86  73  66 S14G20    29.79F HX  93
CHARITON *     SUNNY     86  73  66 S10G18    29.83F HX  93
DES MOINES     CLOUDY    87  71  58 S17       29.79F HX  93
GRINNELL*      MOSUNNY   84  70  61 S15       29.84F HX  88
KNOXVILLE *    SUNNY     86  72  62 S16       29.81F HX  92
MARSHALLTOWN   MOSUNNY   85  72  65 S13       29.80F HX  91
PELLA *        PTSUNNY   86  72  62 S14       29.83F HX  92
PERRY *          N/A     82  72  69 S9G17     29.79S HX  87
$$

IAZ004>006-015-016-023>025-035-036-312000-
   NORTH CENTRAL IOWA

CITY           SKY/WX    TMP DP  RH WIND       PRES   REMARKS
ALGONA *       SUNNY     84  70  61 S18       29.74F HX  88
CLARION *      SUNNY     84  70  61 S17G25    29.77F HX  88
ESTHERVILLE    CLOUDY    76  68  76 S13       29.73S
FORT DODGE *   PTSUNNY   84  70  61 S12G17    29.76F HX  88
MASON CITY     MOSUNNY   85  69  58 S18G26    29.78S HX  89
FOREST CITY *  SUNNY     82  70  65 S15G22    29.76F HX  86
IOWA FALLS *     N/A     84  70  61 S15G23    29.79F HX  88
$$

IAZ007>011-017>019-026>030-037>042-050>054-066-312000-
   NORTHEAST IOWA

CITY           SKY/WX    TMP DP  RH WIND       PRES   REMARKS
CEDAR RAPIDS   SUNNY     84  71  65 S14G23    29.85F HX  89
CHARLES CITY * SUNNY     84  70  61 S13G24    29.79F HX  88
CLINTON *      SUNNY     84  70  61 S9        29.92F HX  88
DECORAH *      SUNNY     82  68  61 S15G21    29.81F HX  85
DUBUQUE        SUNNY     83  68  60 S14       29.88F HX  86
MONTICELLO *   SUNNY     84  72  65 S13G21    29.86F HX  89
OELWEIN *      SUNNY     84  70  61 S17       29.84F HX  88
WATERLOO       SUNNY     86  69  56 S18       29.79F HX  90
$$

IAZ064-065-067-068-078-312000-
   EAST CENTRAL IOWA

CITY           SKY/WX    TMP DP  RH WIND       PRES   REMARKS
DAVENPORT      SUNNY     84  68  58 S12       29.90F HX  87
IOWA CITY      SUNNY     85  71  63 S13       29.87F HX  90
MT. PLEASANT * SUNNY     88  70  55 S10       29.88F HX  92
MUSCATINE *    SUNNY     88  66  48 S13       29.87F HX  90
QUAD CITIES    MOSUNNY   85  69  58 S12       29.89F HX  89
$$

IAZ062-063-075>077-085>089-095>099-312000-
   SOUTHEAST IOWA

CITY           SKY/WX    TMP DP  RH WIND       PRES   REMARKS
BURLINGTON     SUNNY     86  72  62 S9        29.89F HX  92
FAIRFIELD *    SUNNY     86  72  62 S10G17    29.87F HX  92
FORT MADISON * SUNNY     88  73  62 S5        29.90F HX  96
KEOKUK *       SUNNY     86  73  66 S7G14     29.88F HX  93
OSKALOOSA *      N/A     84  72  65 S14G20    29.85F HX  89
CENTERVILLE *  SUNNY     84  73  70 S10       29.87F HX  91
OTTUMWA        MOSUNNY   85  71  63 S10       29.85F HX  90
WASHINGTON *   SUNNY     86  73  66 S13       29.87F HX  93
$$

ABBREVIATIONS USED IN REMARKS
   TC - TEMPERATURES IN CELSIUS
  WCI - WIND CHILL INDEX
   HX - HEAT INDEX
  VSB - VISIBILITY
$$




USA.gov is the U.S. government's official web portal to all federal, state and local government web resources and services.